Вернуться в каталог

NINGXIA-1 2

АктивенНаукаLEO
NORAD 44780·PAYLOAD·🇨🇳 China

Запущен Nov 13, 2019 с Taiyuan Satellite Launch Center

Loading…

Ближайшие Пролёты (ближайшие 24 часа)

TLE

СвежийSource: Space-Track

Эпоха: Sep 14, 2026, 14:16 UTC

1 44780U 19076B   26257.59483880  .00000005  00000-0  87374-4 0  9991
2 44780  45.0079 140.6701 0006449 221.4078 138.6268 14.02128052350407

Отслеживайте NINGXIA-1 2 в реальном времени с AllMySat

Download on the App Store